{"data":{"norad_id":65220,"epoch":"2026-09-20T20:41:17.310624Z","epoch_age_seconds":86509,"freshness":"FRESH","line1":"1 65220U 25176Y   26263.86200591  .00010848  00000+0  33170-3 0  9993","line2":"2 65220  53.1575 321.8139 0000918  80.9629 279.1478 15.34402639 63062","mean_motion":15.34402639,"eccentricity":9.18e-5,"inclination_deg":53.1575,"raan_deg":321.8139,"arg_perigee_deg":80.9629,"mean_anomaly_deg":279.1478,"bstar":0.0003317,"rev_number":6306,"period_min":93.847596673744,"perigee_km":462.0674081402,"apogee_km":463.32338496821,"semimajor_km":6840.8323965542,"source":"CELESTRAK","updated_at":"2026-09-21T09:00:35.538126Z"}}